Weather History for KROX - May, 2013

Change the Weather History Date:

Monday, May 27, 2013

  Actual Average Record
Temperature  
Mean Temperature 62 °F -  
Max Temperature 71 °F 71 °F 94 °F (1969)
Min Temperature 53 °F 43 °F 25 °F (1984)
Degree Days  
Heating Degree Days 3    
Growing Degree Days 12 (Base 50)    
Moisture  
Dew Point 48 °F    
Average Humidity 58    
Maximum Humidity 77    
Minimum Humidity 33    
Precipitation  
Precipitation 0.00 in - - ()
Sea Level Pressure  
Sea Level Pressure 29.93 in    
Wind  
Wind Speed 9 mph (SE)    
Max Wind Speed 17 mph    
Max Gust Speed 23 mph    
Visibility 10 miles    
Events      
Averages and records for this station are not official NWS values.
T = Trace of Precipitation, MM = Missing Value Source: NWS Daily Summary

Daily Weather History Graph

Daily Weather History Graph

Search for Another Location

Airport or City:

Trip Planner

Search our weather history database for the weather conditions in past years. The results will help you decide how hot, cold, wet, or windy it might be!

Date:

Astronomy

May. 27, 2013 Rise Set
Actual Time 5:27 AM CDT 9:13 PM CDT
Civil Twilight 4:47 AM CDT 9:53 PM CDT
Nautical Twilight 3:52 AM CDT 10:48 PM CDT
Astronomical Twilight 2:31 AM CDT 12:11 AM CDT
Moon 11:46 PM CDT (5/27) 8:09 AM CDT (5/27)
Length of Visible Light 17h 06m
Length of Day
15h 45m
Waning Gibbous, 91% of the Moon is Illuminated
May 27
Waning Gibbous
May 31
Last Quarter
Jun 8
New
Jun 16
First Quarter
Jun 23
Full

Hourly Weather History & Observations

Time (CDT) Temp. Dew Point Humidity Pressure Visibility Wind Dir Wind Speed Gust Speed Precip Events Conditions
12:14 AM 57.2 °F 48.2 °F 72% 30.05 in 10.0 mi South 5.8 mph - N/A   Scattered Clouds
12:35 AM 59.0 °F 46.4 °F 63% 30.04 in 10.0 mi South 10.4 mph - N/A   Mostly Cloudy
12:54 AM 59.0 °F 44.6 °F 59% 30.03 in 10.0 mi South 10.4 mph - N/A   Scattered Clouds
1:14 AM 59.0 °F 44.6 °F 59% 30.03 in 10.0 mi South 8.1 mph - N/A   Scattered Clouds
1:34 AM 57.2 °F 46.4 °F 67% 30.02 in 10.0 mi South 6.9 mph - N/A   Scattered Clouds
1:54 AM 55.4 °F 46.4 °F 72% 30.03 in 10.0 mi South 4.6 mph - N/A   Scattered Clouds
2:14 AM 55.4 °F 46.4 °F 72% 30.04 in 10.0 mi Calm Calm - N/A   Mostly Cloudy
2:34 AM 55.4 °F 46.4 °F 72% 30.05 in 10.0 mi Calm Calm - N/A   Mostly Cloudy
2:55 AM 55.4 °F 46.4 °F 72% 30.04 in 10.0 mi Calm Calm - N/A   Scattered Clouds
3:14 AM 55.4 °F 46.4 °F 72% 30.04 in 10.0 mi Calm Calm - N/A   Scattered Clouds
3:34 AM 55.4 °F 46.4 °F 72% 30.04 in 10.0 mi ESE 3.5 mph - N/A   Scattered Clouds
3:55 AM 55.4 °F 46.4 °F 72% 30.04 in 10.0 mi East 4.6 mph - N/A   Scattered Clouds
4:14 AM 55.4 °F 46.4 °F 72% 30.04 in 10.0 mi East 3.5 mph - N/A   Scattered Clouds
4:34 AM 55.4 °F 46.4 °F 72% 30.03 in 10.0 mi East 4.6 mph - N/A   Scattered Clouds
4:54 AM 53.6 °F 46.4 °F 77% 30.04 in 10.0 mi East 3.5 mph - N/A   Mostly Cloudy
5:14 AM 55.4 °F 46.4 °F 72% 30.04 in 10.0 mi East 4.6 mph - N/A   Overcast
5:34 AM 55.4 °F 46.4 °F 72% 30.03 in 10.0 mi East 5.8 mph - N/A   Overcast
5:54 AM 55.4 °F 46.4 °F 72% 30.03 in 10.0 mi East 8.1 mph - N/A   Overcast
6:14 AM 55.4 °F 44.6 °F 67% 30.02 in 10.0 mi East 6.9 mph - N/A   Mostly Cloudy
6:34 AM 55.4 °F 44.6 °F 67% 30.03 in 10.0 mi ESE 9.2 mph - N/A   Mostly Cloudy
6:54 AM 55.4 °F 44.6 °F 67% 30.03 in 10.0 mi ESE 10.4 mph - N/A   Mostly Cloudy
7:14 AM 55.4 °F 42.8 °F 63% 30.04 in 10.0 mi ESE 10.4 mph - N/A   Mostly Cloudy
7:34 AM 55.4 °F 41.0 °F 58% 30.03 in 10.0 mi ESE 10.4 mph - N/A   Scattered Clouds
7:54 AM 55.4 °F 41.0 °F 58% 30.03 in 10.0 mi ESE 8.1 mph - N/A   Scattered Clouds
8:14 AM 57.2 °F 41.0 °F 55% 30.02 in 10.0 mi ESE 6.9 mph - N/A   Clear
8:34 AM 57.2 °F 42.8 °F 59% 30.01 in 10.0 mi East 9.2 mph - N/A   Clear
8:54 AM 57.2 °F 41.0 °F 55% 30.01 in 10.0 mi ESE 8.1 mph - N/A   Scattered Clouds
9:14 AM 60.8 °F 42.8 °F 52% 29.99 in 10.0 mi ESE 11.5 mph - N/A   Scattered Clouds
9:34 AM 62.6 °F 44.6 °F 52% 29.98 in 10.0 mi ESE 9.2 mph - N/A   Scattered Clouds
9:54 AM 62.6 °F 44.6 °F 52% 29.98 in 10.0 mi ESE 10.4 mph - N/A   Clear
10:14 AM 64.4 °F 44.6 °F 49% 29.97 in 10.0 mi SE 10.4 mph - N/A   Clear
10:34 AM 64.4 °F 44.6 °F 49% 29.95 in 10.0 mi SE 15.0 mph 18.4 mph N/A   Clear
10:54 AM 66.2 °F 44.6 °F 46% 29.94 in 10.0 mi ESE 16.1 mph - N/A   Clear
11:14 AM 66.2 °F 42.8 °F 43% 29.94 in 10.0 mi ESE 15.0 mph 18.4 mph N/A   Clear
11:34 AM 66.2 °F 42.8 °F 43% 29.94 in 10.0 mi SE 13.8 mph - N/A   Clear
11:54 AM 68.0 °F 42.8 °F 40% 29.94 in 10.0 mi SSE 10.4 mph 21.9 mph N/A   Clear
12:14 PM 69.8 °F 39.2 °F 33% 29.92 in 10.0 mi SSE 17.3 mph - N/A   Clear
12:34 PM 68.0 °F 42.8 °F 40% 29.92 in 10.0 mi ESE 17.3 mph 20.7 mph N/A   Clear
12:54 PM 69.8 °F 42.8 °F 38% 29.91 in 10.0 mi SE 13.8 mph - N/A   Clear
1:14 PM 69.8 °F 42.8 °F 38% 29.91 in 10.0 mi SE 16.1 mph 20.7 mph N/A   Clear
1:35 PM 69.8 °F 46.4 °F 43% 29.90 in 10.0 mi SE 12.7 mph 23.0 mph N/A   Clear
1:54 PM 71.6 °F 48.2 °F 43% 29.89 in 10.0 mi SSE 17.3 mph 21.9 mph N/A   Clear
2:14 PM 71.6 °F 48.2 °F 43% 29.88 in 10.0 mi SSE 17.3 mph - N/A   Clear
2:35 PM 69.8 °F 48.2 °F 46% 29.88 in 10.0 mi SE 15.0 mph 19.6 mph N/A   Clear
2:54 PM 71.6 °F 51.8 °F 50% 29.87 in 10.0 mi SE 15.0 mph 18.4 mph N/A   Scattered Clouds
3:14 PM 71.6 °F 51.8 °F 50% 29.87 in 10.0 mi SE 16.1 mph 19.6 mph N/A   Clear
3:35 PM 71.6 °F 51.8 °F 50% 29.86 in 10.0 mi SE 15.0 mph 20.7 mph N/A   Clear
3:54 PM 71.6 °F 53.6 °F 53% 29.85 in 10.0 mi SE 10.4 mph 18.4 mph N/A   Clear
4:14 PM 71.6 °F 53.6 °F 53% 29.85 in 10.0 mi SSE 9.2 mph 20.7 mph N/A   Clear
4:34 PM 71.6 °F 53.6 °F 53% 29.85 in 10.0 mi SE 11.5 mph 17.3 mph N/A   Clear
4:54 PM 71.6 °F 53.6 °F 53% 29.84 in 10.0 mi SE 12.7 mph 19.6 mph N/A   Clear
5:14 PM 71.6 °F 53.6 °F 53% 29.84 in 10.0 mi SE 13.8 mph 20.7 mph N/A   Clear
5:34 PM 71.6 °F 53.6 °F 53% 29.85 in 10.0 mi SSE 15.0 mph 18.4 mph N/A   Clear
5:54 PM 69.8 °F 53.6 °F 56% 29.85 in 10.0 mi SSE 10.4 mph - N/A   Scattered Clouds
6:14 PM 69.8 °F 53.6 °F 56% 29.85 in 10.0 mi SSE 12.7 mph 20.7 mph N/A   Scattered Clouds
6:34 PM 69.8 °F 53.6 °F 56% 29.85 in 10.0 mi SSE 11.5 mph - N/A   Scattered Clouds
6:54 PM 69.8 °F 53.6 °F 56% 29.85 in 10.0 mi SSE 13.8 mph - N/A   Scattered Clouds
7:14 PM 69.8 °F 53.6 °F 56% 29.84 in 10.0 mi SE 15.0 mph - N/A   Clear
7:34 PM 69.8 °F 53.6 °F 56% 29.83 in 10.0 mi SE 10.4 mph - N/A   Clear
7:54 PM 68.0 °F 53.6 °F 60% 29.82 in 10.0 mi SSE 11.5 mph - N/A   Clear
8:14 PM 68.0 °F 53.6 °F 60% 29.82 in 10.0 mi SSE 10.4 mph - N/A   Scattered Clouds
8:34 PM 68.0 °F 53.6 °F 60% 29.82 in 10.0 mi SSE 8.1 mph - N/A   Scattered Clouds
8:54 PM 66.2 °F 51.8 °F 60% 29.82 in 10.0 mi SSE 11.5 mph 17.3 mph N/A   Scattered Clouds
9:14 PM 66.2 °F 51.8 °F 60% 29.81 in 10.0 mi SSE 9.2 mph - N/A   Mostly Cloudy
9:34 PM 66.2 °F 51.8 °F 60% 29.82 in 10.0 mi SSE 12.7 mph 16.1 mph N/A   Mostly Cloudy
9:55 PM 64.4 °F 50.0 °F 59% 29.81 in 10.0 mi SSE 16.1 mph 21.9 mph N/A   Scattered Clouds
10:14 PM 62.6 °F 48.2 °F 59% 29.82 in 10.0 mi SSE 16.1 mph - N/A   Clear
10:34 PM 62.6 °F 50.0 °F 63% 29.82 in 10.0 mi SSE 13.8 mph 21.9 mph N/A   Scattered Clouds
10:55 PM 62.6 °F 50.0 °F 63% 29.82 in 10.0 mi SSE 12.7 mph 16.1 mph N/A   Scattered Clouds
11:14 PM 62.6 °F 48.2 °F 59% 29.82 in 10.0 mi SSE 9.2 mph - N/A   Mostly Cloudy
11:34 PM 62.6 °F 50.0 °F 63% 29.81 in 10.0 mi SSE 11.5 mph - N/A   Scattered Clouds
11:55 PM 60.8 °F 50.0 °F 68% 29.82 in 10.0 mi South 8.1 mph - N/A   Scattered Clouds